Temp
16 14 12 12 11 10 10 9 8 7 7 7 6 6 5 5 4 3 3 2 2 1
13 13 12 11 10 10 9 8 7 7 6 6 5 5 5 4 4 3 2 2 1 1
12 12 11 10 10 9 8 7 7 6 6 5 5 4 4 4 3 2 2 1 1 0
12 11 11 10 9 8 7 7 6 5 5 5 4 4 4 3 2 1 1 0 -0 -0
11 10 10 9 8 7 7 6 5 5 4 4 4 3 3 2 1 1 -0 -1 -1 -2
9 9 9 8 7 6 6 5 4 4 4 3 3 2 2 1 0 -0 -1 -1 -2 -2
8 8 7 6 6 5 4 4 4 3 3 3 2 2 1 0 -0 -1 -1 -2 -2 -2
7 7 6 5 4 4 4 3 3 3 2 2 2 1 -0 -0 -1 -1 -2 -2 -2 -2
5 5 5 4 3 3 3 3 2 2 2 1 1 -0 -1 -1 -1 -2 -2 -3 -3 -2
5 4 4 3 3 3 2 2 1 1 1 -0 -1 -2 -2 -1 -2 -2 -3 -3 -3 -3
4 3 3 3 2 2 1 1 1 -0 -1 -1 -2 -3 -2 -2 -3 -3 -3 -3 -3 -3
3 3 3 2 1 1 1 0 -0 -1 -2 -2 -2 -3 -3 -3 -3 -3 -3 -3 -3 -3
3 3 2 1 1 0 -0 -1 -1 -2 -2 -3 -3 -3 -4 -3 -3 -3 -3 -3 -3 -4
2 2 1 1 0 -1 -1 -2 -2 -2 -2 -3 -4 -4 -4 -4 -3 -3 -3 -3 -3 -3
Height
760 768 775 783 789 792 795 800 804 807 809 809 810 810 810 809 808 807 807 806 805 804
760 767 775 784 788 791 794 799 803 806 807 808 809 809 808 808 807 806 805 804 802 801
761 769 777 783 787 791 794 798 802 805 806 807 807 808 807 806 805 804 802 801 800 798
763 770 777 782 787 791 794 797 801 804 805 805 806 806 805 804 803 801 800 799 796 794
764 770 776 782 787 791 794 797 800 802 804 804 804 803 803 802 800 798 796 794 792 790
766 770 775 781 787 791 794 797 799 801 802 802 802 801 800 798 797 795 793 791 788 786
768 772 776 782 787 790 794 796 798 800 800 800 799 798 797 795 793 791 789 787 785 783
770 774 778 783 787 790 793 795 797 798 799 798 797 796 794 792 790 787 785 783 781 778
772 776 779 784 787 790 792 795 797 797 797 796 794 792 791 789 786 784 782 779 776 773
773 776 780 784 787 790 792 794 795 795 794 793 791 789 787 785 783 780 777 774 771 768
774 777 781 784 787 790 792 793 793 793 792 789 787 786 784 782 779 776 773 770 766 762
775 778 782 784 787 790 791 791 791 791 788 787 785 783 781 778 775 772 769 765 761 758
777 779 782 786 788 789 790 790 789 788 786 784 782 780 777 775 771 767 764 760 757 754
778 781 784 785 787 789 789 789 787 786 783 782 779 777 774 771 767 764 760 756 752 749
Wind_Speed
30 37 38 35 29 23 20 17 13 9 6 5 4 5 5 6 6 6 5 6 8 8
33 37 36 30 24 21 18 16 12 7 5 4 4 5 6 6 6 6 8 9 10 10
32 35 32 27 23 20 17 14 10 7 4 3 3 5 6 6 6 9 10 9 11 11
32 32 29 25 21 18 16 12 9 6 4 3 4 5 6 7 8 9 11 11 11 13
33 31 28 24 20 17 14 11 8 5 3 3 4 5 6 8 9 11 11 13 14 14
32 30 27 23 19 16 13 10 7 4 3 4 5 6 7 9 10 10 12 14 14 14
30 28 25 21 18 15 12 9 6 4 4 5 7 9 9 9 11 13 14 16 16 14
27 25 23 20 17 14 10 8 5 3 4 7 9 10 9 10 12 15 16 17 16 15
27 24 21 19 16 12 9 6 3 4 7 10 11 11 9 11 12 15 14 16 16 20
25 23 20 17 14 11 7 4 4 6 9 11 12 10 12 13 14 14 16 17 20 20
24 22 19 15 11 8 4 3 6 8 10 12 12 11 13 14 14 15 16 20 21 20
22 21 16 12 8 5 3 5 7 9 11 13 13 13 14 15 15 15 17 20 19 19
19 17 13 10 6 4 4 6 9 10 11 11 13 15 15 15 15 16 19 19 17 17
16 14 11 8 5 4 5 8 9 12 13 13 15 15 15 16 16 18 20 19 20 21
Wind_Direction
171 173 169 168 161 153 149 146 142 140 120 89 61 35 15 6 0 355 351 337 326 312
172 174 166 160 156 151 148 145 143 138 117 88 52 19 3 357 351 351 340 332 323 309
168 164 159 157 153 151 147 146 143 136 119 82 34 5 353 351 345 337 333 326 315 311
158 158 157 156 152 151 147 143 141 134 111 60 16 358 350 344 335 329 325 325 322 318
156 156 154 152 151 150 146 140 135 121 86 35 10 357 342 330 325 326 329 334 329 321
152 153 150 149 149 146 141 133 121 99 59 25 359 344 330 320 323 324 332 334 328 319
151 150 147 145 143 140 133 123 106 80 37 360 345 333 327 322 319 322 327 332 327 320
147 146 142 139 137 131 122 108 93 54 9 350 337 333 328 324 319 319 320 325 320 316
144 141 138 135 130 122 113 104 77 17 353 342 337 335 328 324 317 314 308 311 310 317
141 136 134 131 126 118 112 89 33 359 343 338 337 338 330 324 314 311 310 310 309 308
140 133 131 128 122 115 94 43 5 348 338 337 341 335 329 323 313 312 312 311 311 307
138 131 129 123 116 104 57 7 347 343 344 339 335 335 329 326 318 312 311 312 311 308
131 127 124 119 107 68 16 350 346 347 343 340 333 338 331 324 316 317 314 312 306 307
125 122 114 104 77 34 7 357 348 343 345 345 346 334 328 329 323 316 313 317 317 319